When you browse on this site, cookies collect data to enhance your experience and personalize the content and advertising you see.
Visit our Privacy Policy to learn more. By continuing to use the site, you agree to this use of cookies and data.

Hourly Weather Halifax

Today, 7 July, Tuesday

Time Temperature Precipitation Wind Pressure Humidity
00:00 +10°C° 0 mm 2 mps 762 mmHg 97%
01:00 +10°C° 0 mm 2 mps 763 mmHg 97%
02:00 +9°C° 0 mm 2 mps 763 mmHg 97%
03:00 +9°C° 0 mm 2 mps 763 mmHg 97%
04:00 +9°C° 0 mm 2 mps 763 mmHg 97%
05:00 +9°C° 0 mm 2 mps 763 mmHg 97%
06:00 +12°C° 0 mm 2 mps 763 mmHg 93%
07:00 +14°C° 0 mm 2 mps 764 mmHg 89%
08:00 +16°C° 0 mm 1 mps 764 mmHg 84%
09:00 +17°C° 0 mm 2 mps 764 mmHg 74%
10:00 +19°C° 0 mm 2 mps 764 mmHg 64%
11:00 +21°C° 0 mm 2 mps 764 mmHg 54%
12:00 +21°C° 0 mm 3 mps 763 mmHg 55%
13:00 +21°C° 0 mm 3 mps 763 mmHg 55%
14:00 +21°C° 0 mm 4 mps 763 mmHg 55%
15:00 +20°C° 0 mm 3 mps 763 mmHg 58%
16:00 +20°C° 0 mm 3 mps 763 mmHg 61%
17:00 +19°C° 0 mm 3 mps 763 mmHg 64%
18:00 +17°C° 0 mm 2 mps 763 mmHg 73%
19:00 +15°C° 0 mm 2 mps 763 mmHg 82%
20:00 +13°C° 0 mm 2 mps 763 mmHg 90%
21:00 +13°C° 0 mm 2 mps 763 mmHg 93%
22:00 +12°C° 0 mm 2 mps 763 mmHg 95%
23:00 +10°C° 0 mm 2 mps 764 mmHg 97%

Tomorrow, 8 July, Wednesday

Time Temperature Precipitation Wind Pressure Humidity
00:00 +10°C° 0 mm 2 mps 763 mmHg 97%
01:00 +10°C° 0 mm 2 mps 763 mmHg 97%
02:00 +10°C° 0 mm 2 mps 763 mmHg 97%
03:00 +10°C° 0 mm 2 mps 763 mmHg 97%
04:00 +10°C° 0 mm 2 mps 763 mmHg 97%
05:00 +10°C° 0 mm 2 mps 763 mmHg 97%
06:00 +13°C° 0 mm 2 mps 763 mmHg 89%
07:00 +14°C° 0 mm 3 mps 763 mmHg 82%
08:00 +17°C° 0 mm 3 mps 763 mmHg 74%
09:00 +18°C° 0 mm 4 mps 762 mmHg 69%
10:00 +19°C° 0 mm 4 mps 762 mmHg 65%
11:00 +20°C° 0 mm 5 mps 761 mmHg 60%
12:00 +20°C° 0 mm 5 mps 761 mmHg 60%
13:00 +20°C° 0 mm 5 mps 761 mmHg 60%
14:00 +20°C° 0 mm 5 mps 761 mmHg 60%
15:00 +19°C° 0 mm 5 mps 760 mmHg 67%
16:00 +16°C° 0 mm 5 mps 760 mmHg 75%
17:00 +15°C° 0 mm 5 mps 760 mmHg 83%
18:00 +15°C° 0.3 mm 5 mps 760 mmHg 87%
19:00 +14°C° 0.3 mm 5 mps 760 mmHg 92%
20:00 +14°C° 0.3 mm 5 mps 760 mmHg 96%
21:00 +14°C° 0.2 mm 5 mps 760 mmHg 96%
22:00 +15°C° 0.2 mm 5 mps 759 mmHg 96%
23:00 +15°C° 0.2 mm 5 mps 759 mmHg 97%

Day after tomorrow, 9 July, Thursday

Time Temperature Precipitation Wind Pressure Humidity
00:00 +15°C° 0.2 mm 5 mps 759 mmHg 97%
01:00 +15°C° 0.2 mm 5 mps 759 mmHg 96%
02:00 +15°C° 0.2 mm 5 mps 758 mmHg 96%
03:00 +15°C° 0.2 mm 5 mps 758 mmHg 97%
04:00 +15°C° 0.2 mm 4 mps 758 mmHg 97%
05:00 +15°C° 0.2 mm 4 mps 758 mmHg 97%
06:00 +17°C° 0.2 mm 4 mps 759 mmHg 97%
07:00 +17°C° 0.2 mm 4 mps 759 mmHg 97%
08:00 +18°C° 0.2 mm 4 mps 759 mmHg 96%
09:00 +19°C° 0 mm 4 mps 759 mmHg 91%
10:00 +21°C° 0 mm 4 mps 759 mmHg 85%
11:00 +23°C° 0 mm 4 mps 759 mmHg 80%
12:00 +22°C° 0 mm 4 mps 759 mmHg 81%
13:00 +22°C° 0 mm 4 mps 759 mmHg 83%
14:00 +22°C° 0 mm 4 mps 759 mmHg 84%
15:00 +23°C° 0 mm 4 mps 759 mmHg 82%
16:00 +24°C° 0 mm 3 mps 759 mmHg 80%
17:00 +25°C° 0 mm 3 mps 759 mmHg 78%
18:00 +24°C° 0 mm 3 mps 759 mmHg 84%
19:00 +21°C° 0 mm 2 mps 759 mmHg 90%
20:00 +20°C° 0 mm 2 mps 760 mmHg 96%
21:00 +19°C° 0 mm 2 mps 760 mmHg 96%
22:00 +19°C° 0 mm 2 mps 760 mmHg 96%
23:00 +19°C° 0 mm 2 mps 760 mmHg 97%

10 July, Friday

Time Temperature Precipitation Wind Pressure Humidity
00:00 +19°C° 0 mm 2 mps 760 mmHg 97%
01:00 +19°C° 0 mm 2 mps 760 mmHg 97%
02:00 +18°C° 0 mm 2 mps 761 mmHg 98%
03:00 +19°C° 0 mm 1 mps 761 mmHg 98%
04:00 +19°C° 0 mm 1 mps 761 mmHg 98%
05:00 +19°C° 0 mm 1 mps 761 mmHg 98%
06:00 +21°C° 0 mm 1 mps 761 mmHg 91%
07:00 +21°C° 0 mm 0 mps 762 mmHg 85%
08:00 +23°C° 0 mm 0 mps 762 mmHg 78%
09:00 +27°C° 0 mm 1 mps 762 mmHg 71%
10:00 +28°C° 0 mm 2 mps 762 mmHg 63%
11:00 +30°C° 0 mm 2 mps 762 mmHg 56%
12:00 +30°C° 0 mm 3 mps 762 mmHg 55%
13:00 +30°C° 0 mm 3 mps 762 mmHg 54%
14:00 +30°C° 0 mm 4 mps 762 mmHg 53%
15:00 +29°C° 0 mm 4 mps 762 mmHg 59%
16:00 +27°C° 0 mm 4 mps 761 mmHg 64%
17:00 +26°C° 0 mm 4 mps 761 mmHg 70%
18:00 +23°C° 0 mm 4 mps 761 mmHg 79%
19:00 +22°C° 0 mm 3 mps 761 mmHg 88%
20:00 +20°C° 0 mm 3 mps 761 mmHg 98%
21:00 +20°C° 0 mm 3 mps 761 mmHg 98%
22:00 +20°C° 0 mm 3 mps 761 mmHg 98%
23:00 +19°C° 0 mm 3 mps 761 mmHg 98%

11 July, Saturday

Time Temperature Precipitation Wind Pressure Humidity
00:00 +19°C° 0 mm 3 mps 761 mmHg 98%
01:00 +20°C° 0 mm 3 mps 760 mmHg 98%
02:00 +20°C° 0 mm 3 mps 760 mmHg 97%
03:00 +20°C° 0 mm 3 mps 760 mmHg 97%
04:00 +20°C° 0 mm 2 mps 760 mmHg 96%
05:00 +20°C° 0 mm 2 mps 759 mmHg 96%
06:00 +20°C° 0 mm 3 mps 759 mmHg 93%
07:00 +21°C° 0 mm 3 mps 759 mmHg 91%
08:00 +21°C° 0 mm 4 mps 759 mmHg 88%
09:00 +21°C° 0.6 mm 4 mps 759 mmHg 91%
10:00 +20°C° 0.6 mm 4 mps 758 mmHg 94%
11:00 +20°C° 0.6 mm 5 mps 758 mmHg 97%
12:00 +20°C° 1.7 mm 5 mps 757 mmHg 98%
13:00 +19°C° 1.7 mm 6 mps 756 mmHg 98%
14:00 +19°C° 1.7 mm 6 mps 755 mmHg 98%
15:00 +18°C° 2.4 mm 7 mps 755 mmHg 98%
16:00 +18°C° 2.4 mm 7 mps 754 mmHg 98%
17:00 +20°C° 2.4 mm 8 mps 753 mmHg 98%
18:00 +20°C° 0.8 mm 7 mps 752 mmHg 98%
19:00 +20°C° 0.8 mm 6 mps 752 mmHg 99%
20:00 +20°C° 0.8 mm 6 mps 751 mmHg 99%
21:00 +20°C° 0.1 mm 6 mps 751 mmHg 99%
22:00 +20°C° 0.1 mm 5 mps 751 mmHg 98%
23:00 +19°C° 0.1 mm 5 mps 750 mmHg 98%

12 July, Sunday

Time Temperature Precipitation Wind Pressure Humidity
00:00 +20°C° 0 mm 5 mps 750 mmHg 98%
01:00 +20°C° 0 mm 5 mps 750 mmHg 98%
02:00 +20°C° 0 mm 4 mps 750 mmHg 98%
03:00 +20°C° 0 mm 4 mps 750 mmHg 98%
04:00 +20°C° 0 mm 4 mps 750 mmHg 98%
05:00 +20°C° 0 mm 4 mps 750 mmHg 98%
06:00 +21°C° 0 mm 4 mps 751 mmHg 97%
07:00 +21°C° 0 mm 4 mps 751 mmHg 96%
08:00 +22°C° 0 mm 3 mps 751 mmHg 95%
09:00 +23°C° 0 mm 4 mps 751 mmHg 88%
10:00 +25°C° 0 mm 4 mps 752 mmHg 82%
11:00 +27°C° 0 mm 4 mps 752 mmHg 75%
12:00 +28°C° 0 mm 4 mps 752 mmHg 71%
13:00 +29°C° 0 mm 4 mps 752 mmHg 68%
14:00 +29°C° 0 mm 5 mps 752 mmHg 64%
15:00 +29°C° 0.1 mm 4 mps 752 mmHg 69%
16:00 +28°C° 0.1 mm 4 mps 752 mmHg 73%
17:00 +27°C° 0.1 mm 3 mps 753 mmHg 78%
18:00 +26°C° 0 mm 3 mps 753 mmHg 82%
19:00 +25°C° 0 mm 3 mps 754 mmHg 86%
20:00 +24°C° 0 mm 3 mps 755 mmHg 89%
21:00 +22°C° 0 mm 3 mps 755 mmHg 90%
22:00 +21°C° 0 mm 3 mps 756 mmHg 91%
23:00 +20°C° 0 mm 3 mps 756 mmHg 92%
Show more